Tulsa, OK

7:57 AM CDT on March 30, 2017 (GMT -0500)
Tulsa International

Weather History for KTUL - February, 2013

Change the Weather History Date:

Tuesday, February 26, 2013

  Actual Average Record
Temperature  
Mean Temperature 37 °F 46 °F  
Max Temperature 42 °F 57 °F 81 °F (2009)
Min Temperature 31 °F 35 °F 11 °F (1960)
Degree Days  
Heating Degree Days 28 20  
Month to date heating degree days 612 600  
Since 1 July heating degree days 2620 2873  
Moisture  
Dew Point 32 °F    
Average Humidity 85    
Maximum Humidity 100    
Minimum Humidity 70    
Precipitation  
Precipitation 0.14 in 0.08 in 1.25 in (1984)
Month to date precipitation 3.18 1.69  
Year to date precipitation 4.72 3.35  
Sea Level Pressure  
Sea Level Pressure 29.69 in    
Wind  
Wind Speed 15 mph (NW)    
Max Wind Speed 25 mph    
Max Gust Speed 34 mph    
Visibility 6 miles    
Events Rain , Snow    
T = Trace of Precipitation, MM = Missing Value Source: NWS Daily Summary

Daily Weather History Graph

Daily Weather History Graph

Search for Another Location

Airport or City:

Trip Planner

Search our weather history database for the weather conditions in past years. The results will help you decide how hot, cold, wet, or windy it might be!

Date:

Astronomy

Feb. 26, 2013 Rise Set
Actual Time 6:57 AM CST 6:15 PM CST
Civil Twilight 6:31 AM CST 6:41 PM CST
Nautical Twilight 6:01 AM CST 7:11 PM CST
Astronomical Twilight 5:32 AM CST 7:41 PM CST
Moon 7:29 PM CST (2/26) 7:03 AM CST (2/26)
Length of Visible Light 12h 10m
Length of Day
11h 18m
Full, 99% of the Moon is Illuminated
Feb 26
Full
Mar 4
Last Quarter
Mar 11
New
Mar 19
First Quarter
Mar 27
Full

Hourly Weather History & Observations

Time (CST) Temp. Windchill Dew Point Humidity Pressure Visibility Wind Dir Wind Speed Gust Speed Precip Events Conditions
12:39 AM 33.1 °F 22.2 °F 33.1 °F 100% 29.50 in 1.0 mi NNW 17.3 mph - 0.05 in Snow Light Snow
12:53 AM 33.1 °F 21.9 °F 33.1 °F 100% 29.51 in 1.0 mi NNW 18.4 mph - 0.05 in Snow Light Snow
1:00 AM 33.1 °F 21.9 °F 33.1 °F 100% 29.51 in 2.0 mi NNW 18.4 mph - 0.01 in Snow Light Snow
1:10 AM 33.1 °F 21.2 °F 33.1 °F 100% 29.51 in 2.0 mi NNW 20.7 mph 27.6 mph 0.01 in Snow Light Snow
1:53 AM 33.1 °F 21.2 °F 33.1 °F 100% 29.52 in 2.0 mi NNW 20.7 mph 26.5 mph 0.02 in Snow Light Snow
1:59 AM 33.1 °F 21.2 °F 33.1 °F 100% 29.51 in 3.0 mi NNW 20.7 mph - 0.00 in Snow Light Snow
2:35 AM 33.1 °F 21.2 °F 33.1 °F 100% 29.52 in 2.0 mi NNW 20.7 mph - 0.00 in Snow Light Snow
2:53 AM 33.1 °F 21.5 °F 33.1 °F 100% 29.53 in 2.0 mi NNW 19.6 mph 26.5 mph 0.01 in Snow Light Snow
3:03 AM 33.1 °F 21.5 °F 33.1 °F 100% 29.52 in 0.8 mi NW 19.6 mph 27.6 mph 0.01 in Snow Light Snow
3:22 AM 33.1 °F 22.2 °F 33.1 °F 100% 29.53 in 1.5 mi NW 17.3 mph 23.0 mph 0.03 in Snow Light Snow
3:31 AM 33.1 °F 22.6 °F 33.1 °F 100% 29.53 in 4.0 mi NW 16.1 mph - 0.04 in Snow Light Snow
3:53 AM 34.0 °F 22.7 °F 34.0 °F 100% 29.54 in 9.0 mi NW 19.6 mph 26.5 mph 0.04 in Snow Light Snow
4:04 AM 34.0 °F 23.0 °F 34.0 °F 100% 29.54 in 9.0 mi NW 18.4 mph - 0.00 in   Overcast
4:53 AM 34.0 °F 21.5 °F 34.0 °F 100% 29.56 in 5.0 mi NNW 24.2 mph 32.2 mph 0.00 in Snow Light Snow
5:18 AM 33.1 °F 21.2 °F 33.1 °F 100% 29.56 in 3.0 mi NNW 20.7 mph 28.8 mph 0.01 in Snow Light Snow
5:25 AM 34.0 °F 22.7 °F 34.0 °F 100% 29.56 in 4.0 mi NW 19.6 mph 28.8 mph 0.02 in Snow Light Snow
5:53 AM 35.1 °F 24.5 °F 34.0 °F 96% 29.58 in 8.0 mi NNW 18.4 mph 31.1 mph 0.02 in   Overcast
6:53 AM 36.0 °F 25.3 °F 35.1 °F 97% 29.60 in 7.0 mi NW 19.6 mph 33.4 mph N/A   Overcast
7:53 AM 35.1 °F 25.2 °F 33.1 °F 92% 29.63 in 5.0 mi NNW 16.1 mph 26.5 mph 0.00 in   Light Drizzle
8:15 AM 36.0 °F 24.7 °F 33.1 °F 89% 29.63 in 5.0 mi NNW 21.9 mph 27.6 mph 0.00 in   Overcast
8:53 AM 36.0 °F 26.0 °F 33.1 °F 89% 29.68 in 5.0 mi NW 17.3 mph 31.1 mph 0.00 in Rain Light Rain
9:03 AM 36.0 °F 24.7 °F 33.1 °F 89% 29.67 in 5.0 mi NW 21.9 mph 27.6 mph 0.00 in Rain Light Rain
9:53 AM 37.0 °F 26.7 °F 32.0 °F 82% 29.70 in 6.0 mi NW 19.6 mph - 0.00 in Rain Light Rain
10:53 AM 37.0 °F 27.4 °F 30.9 °F 79% 29.73 in 7.0 mi NW 17.3 mph - 0.00 in   Overcast
11:53 AM 39.0 °F 30.3 °F 32.0 °F 76% 29.75 in 7.0 mi NNW 16.1 mph 26.5 mph N/A   Overcast
12:53 PM 39.0 °F 28.5 °F 32.0 °F 76% 29.75 in 7.0 mi NNW 23.0 mph 31.1 mph N/A   Overcast
1:53 PM 41.0 °F 32.5 °F 32.0 °F 70% 29.75 in 8.0 mi NNW 17.3 mph - N/A   Overcast
2:53 PM 42.1 °F 35.7 °F 33.1 °F 70% 29.76 in 9.0 mi NW 11.5 mph - N/A   Overcast
3:53 PM 41.0 °F 33.1 °F 32.0 °F 70% 29.79 in 8.0 mi WNW 15.0 mph - N/A   Overcast
4:53 PM 39.9 °F 32.1 °F 32.0 °F 73% 29.82 in 8.0 mi WNW 13.8 mph - N/A   Overcast
5:17 PM 39.9 °F 32.9 °F 32.0 °F 73% 29.81 in 7.0 mi NW 11.5 mph - N/A   Overcast
5:53 PM 39.0 °F 31.8 °F 32.0 °F 76% 29.83 in 8.0 mi NW 11.5 mph - N/A   Overcast
6:53 PM 39.0 °F 32.3 °F 32.0 °F 76% 29.86 in 8.0 mi NW 10.4 mph - N/A   Overcast
7:53 PM 37.9 °F 30.9 °F 30.9 °F 76% 29.89 in 8.0 mi WNW 10.4 mph - N/A   Overcast
8:53 PM 37.9 °F 30.9 °F 30.9 °F 76% 29.92 in 8.0 mi NW 10.4 mph - N/A   Overcast
9:08 PM 37.0 °F 31.0 °F 30.9 °F 79% 29.91 in 8.0 mi NW 8.1 mph - N/A   Overcast
9:48 PM 35.6 °F 29.2 °F 30.2 °F 81% 29.91 in 8.0 mi NW 8.1 mph - N/A   Scattered Clouds
9:53 PM 35.1 °F 29.3 °F 30.0 °F 82% 29.92 in 7.0 mi NW 6.9 mph - N/A   Partly Cloudy
10:53 PM 33.1 °F 26.9 °F 28.9 °F 85% 29.93 in 8.0 mi WNW 6.9 mph - N/A   Partly Cloudy
11:53 PM 32.0 °F 27.5 °F 28.0 °F 85% 29.94 in 7.0 mi WNW 4.6 mph - N/A   Scattered Clouds